| time (UTC) | temp F | wind direction | speed knots | gust knots | rain 1hr in | rain 24hr in | rain mn in | humidity % | barometer mb |
| 20260507064544 | 36 | 0 | 0.9 | 3.5 | 0.00 | 0.00 | 0.00 | 77 | 1012.1 |
| 20260507064037 | 36 | 163 | 0.0 | 1.7 | 0.00 | 0.00 | 0.00 | 79 | 1012.2 |
| 20260507063536 | 36 | 163 | 0.0 | 3.5 | 0.00 | 0.00 | 0.00 | 78 | 1012.2 |
| 20260507063050 | 37 | 163 | 0.9 | 3.5 | 0.00 | 0.00 | 0.00 | 77 | 1012.1 |
| 20260507062537 | 37 | 110 | 0.9 | 2.6 | 0.00 | 0.00 | 0.00 | 78 | 1012.2 |
| 20260507062037 | 37 | 143 | 0.0 | 8.7 | 0.00 | 0.00 | 0.00 | 77 | 1012.0 |
| 20260507061549 | 37 | 0 | 0.0 | 8.7 | 0.00 | 0.00 | 0.00 | 76 | 1012.0 |
| 20260507061037 | 37 | 193 | 2.6 | 8.7 | 0.00 | 0.00 | 0.00 | 76 | 1012.0 |
| 20260507060534 | 37 | 242 | 0.9 | 4.3 | 0.00 | 0.00 | 0.00 | 77 | 1011.9 |
| 20260507060056 | 37 | 120 | 0.9 | 4.3 | 0.00 | 0.00 | 0.00 | 78 | 1011.9 |
| 20260507055539 | 36 | 0 | 0.0 | 5.2 | 0.00 | 0.00 | 0.00 | 80 | 1011.9 |
| 20260507055037 | 37 | 0 | 0.0 | 6.1 | 0.00 | 0.00 | 0.00 | 79 | 1011.9 |
| 20260507054549 | 37 | 227 | 0.9 | 6.1 | 0.00 | 0.00 | 0.00 | 78 | 1011.8 |
| 20260507054037 | 37 | 173 | 0.0 | 7.0 | 0.00 | 0.00 | 0.00 | 79 | 1011.9 |
| 20260507053538 | 37 | 200 | 1.7 | 7.0 | 0.00 | 0.00 | 0.00 | 79 | 1011.8 |
| 20260507053053 | 36 | 205 | 1.7 | 5.2 | 0.00 | 0.00 | 0.00 | 80 | 1011.9 |
| 20260507052537 | 36 | 192 | 0.0 | 5.2 | 0.00 | 0.00 | 0.00 | 81 | 1011.9 |
| 20260507052037 | 36 | 0 | 0.0 | 0.0 | 0.00 | 0.00 | 0.00 | 82 | 1011.8 |
| 20260507051545 | 36 | 0 | 0.0 | 0.0 | 0.00 | 0.00 | 0.00 | 83 | 1011.8 |
| 20260507051039 | 36 | 0 | 0.0 | 1.7 | 0.00 | 0.00 | 0.00 | 82 | 1011.7 |
| 20260507050536 | 36 | 0 | 0.0 | 12.2 | 0.00 | 0.00 | 0.00 | 82 | 1011.7 |
| 20260507050044 | 36 | 195 | 1.7 | 12.2 | 0.00 | 0.00 | 0.00 | 81 | 1011.7 |
| 20260507045538 | 37 | 229 | 4.3 | 11.3 | 0.00 | 0.00 | 0.00 | 80 | 1011.7 |
| 20260507045034 | 37 | 213 | 2.6 | 9.6 | 0.00 | 0.00 | 0.00 | 77 | 1011.7 |
| 20260507044557 | 37 | 217 | 4.3 | 9.6 | 0.00 | 0.00 | 0.00 | 77 | 1011.7 |
| 20260507044034 | 38 | 209 | 2.6 | 10.4 | 0.00 | 0.00 | 0.00 | 76 | 1011.7 |
| 20260507043534 | 38 | 232 | 4.3 | 13.0 | 0.00 | 0.00 | 0.00 | 75 | 1011.7 |
| 20260507043047 | 38 | 223 | 6.1 | 13.0 | 0.00 | 0.00 | 0.00 | 76 | 1011.7 |
| 20260507042535 | 38 | 235 | 4.3 | 10.4 | 0.00 | 0.00 | 0.00 | 74 | 1011.6 |
| 20260507042037 | 38 | 240 | 2.6 | 11.3 | 0.00 | 0.00 | 0.00 | 75 | 1011.5 |
| 20260507041548 | 38 | 234 | 5.2 | 11.3 | 0.00 | 0.00 | 0.00 | 75 | 1011.5 |
| 20260507041037 | 38 | 216 | 4.3 | 13.0 | 0.00 | 0.00 | 0.00 | 76 | 1011.4 |
| 20260507040537 | 38 | 230 | 4.3 | 13.0 | 0.00 | 0.00 | 0.00 | 75 | 1011.3 |
| 20260507040047 | 38 | 232 | 5.2 | 13.0 | 0.00 | 0.00 | 0.00 | 73 | 1011.3 |
| 20260507035534 | 39 | 257 | 5.2 | 13.0 | 0.00 | 0.00 | 0.00 | 71 | 1011.2 |
| 20260507035035 | 39 | 240 | 4.3 | 10.4 | 0.00 | 0.00 | 0.00 | 71 | 1011.3 |
| 20260507034544 | 39 | 213 | 5.2 | 12.2 | 0.00 | 0.00 | 0.00 | 69 | 1011.3 |
| 20260507034037 | 39 | 217 | 4.3 | 12.2 | 0.00 | 0.00 | 0.00 | 69 | 1011.2 |
| 20260507033541 | 40 | 232 | 5.2 | 12.2 | 0.00 | 0.00 | 0.00 | 69 | 1011.1 |
| 20260507033048 | 40 | 0 | 1.7 | 6.1 | 0.00 | 0.00 | 0.00 | 69 | 1011.2 |
| 20260507032539 | 40 | 0 | 2.6 | 9.6 | 0.00 | 0.00 | 0.00 | 68 | 1011.1 |
| 20260507032038 | 39 | 242 | 2.6 | 9.6 | 0.00 | 0.00 | 0.00 | 70 | 1011.1 |
| 20260507031547 | 39 | 217 | 4.3 | 13.0 | 0.00 | 0.00 | 0.00 | 69 | 1011.1 |
| 20260507031038 | 39 | 236 | 3.5 | 13.0 | 0.00 | 0.00 | 0.00 | 70 | 1010.9 |
| 20260507030538 | 39 | 229 | 6.1 | 13.0 | 0.00 | 0.00 | 0.00 | 70 | 1011.0 |
| 20260507030054 | 39 | 220 | 4.3 | 10.4 | 0.00 | 0.00 | 0.00 | 70 | 1011.0 |
| 20260507025539 | 39 | 257 | 4.3 | 11.3 | 0.00 | 0.00 | 0.00 | 70 | 1011.0 |
| 20260507025035 | 40 | 245 | 5.2 | 11.3 | 0.00 | 0.00 | 0.00 | 70 | 1010.9 |
| 20260507024552 | 39 | 0 | 1.7 | 7.0 | 0.00 | 0.00 | 0.00 | 75 | 1010.9 |
| 20260507024037 | 39 | 46 | 0.0 | 3.5 | 0.00 | 0.00 | 0.00 | 84 | 1011.1 |
| 20260507023538 | 39 | 0 | 0.0 | 5.2 | 0.00 | 0.00 | 0.00 | 85 | 1011.0 |
| 20260507023040 | 39 | 46 | 0.9 | 5.2 | 0.00 | 0.00 | 0.00 | 84 | 1010.9 |
| 20260507022537 | 40 | 39 | 0.9 | 3.5 | 0.00 | 0.00 | 0.00 | 83 | 1010.8 |
| 20260507022037 | 40 | 46 | 0.9 | 4.3 | 0.00 | 0.00 | 0.00 | 82 | 1010.8 |
| 20260507021540 | 40 | 0 | 0.0 | 4.3 | 0.00 | 0.00 | 0.00 | 83 | 1010.8 |
| 20260507021040 | 40 | 352 | 1.7 | 4.3 | 0.00 | 0.00 | 0.00 | 81 | 1010.8 |
| 20260507020538 | 40 | 41 | 1.7 | 5.2 | 0.00 | 0.00 | 0.00 | 81 | 1010.8 |
| 20260507020050 | 41 | 35 | 0.9 | 6.1 | 0.00 | 0.00 | 0.00 | 80 | 1010.9 |
| 20260507015535 | 41 | 319 | 1.7 | 6.1 | 0.00 | 0.00 | 0.00 | 73 | 1010.7 |
| 20260507015035 | 42 | 49 | 1.7 | 5.2 | 0.00 | 0.00 | 0.00 | 77 | 1010.7 |
| 20260507014545 | 42 | 171 | 0.0 | 5.2 | 0.00 | 0.00 | 0.00 | 71 | 1010.7 |
| 20260507014037 | 42 | 154 | 0.9 | 5.2 | 0.00 | 0.00 | 0.00 | 69 | 1010.8 |
| 20260507013538 | 42 | 0 | 1.7 | 7.0 | 0.00 | 0.00 | 0.00 | 66 | 1010.6 |
| 20260507013057 | 42 | 167 | 1.7 | 7.8 | 0.00 | 0.00 | 0.00 | 67 | 1010.7 |
| 20260507012547 | 42 | 113 | 0.9 | 8.7 | 0.00 | 0.00 | 0.00 | 67 | 1010.7 |
| 20260507012037 | 41 | 206 | 4.3 | 11.3 | 0.00 | 0.00 | 0.00 | 67 | 1010.7 |
| 20260507011544 | 42 | 207 | 4.3 | 11.3 | 0.00 | 0.00 | 0.00 | 67 | 1010.6 |
| 20260507011037 | 42 | 244 | 2.6 | 10.4 | 0.00 | 0.00 | 0.00 | 67 | 1010.6 |
| 20260507010537 | 42 | 221 | 4.3 | 10.4 | 0.00 | 0.00 | 0.00 | 67 | 1010.5 |
| 20260507010044 | 42 | 217 | 3.5 | 10.4 | 0.00 | 0.00 | 0.00 | 67 | 1010.6 |
| 20260507005538 | 42 | 223 | 4.3 | 10.4 | 0.00 | 0.00 | 0.00 | 67 | 1010.6 |
| 20260507005036 | 42 | 235 | 3.5 | 9.6 | 0.00 | 0.00 | 0.00 | 67 | 1010.5 |
| 20260507004539 | 42 | 175 | 3.5 | 12.2 | 0.00 | 0.00 | 0.00 | 67 | 1010.4 |
| 20260507004038 | 42 | 186 | 6.1 | 12.2 | 0.00 | 0.00 | 0.00 | 67 | 1010.4 |
| 20260507003537 | 42 | 223 | 5.2 | 11.3 | 0.00 | 0.00 | 0.00 | 67 | 1010.4 |
| 20260507003046 | 42 | 229 | 5.2 | 10.4 | 0.00 | 0.00 | 0.00 | 66 | 1010.4 |
| 20260507002536 | 42 | 185 | 5.2 | 8.7 | 0.00 | 0.00 | 0.00 | 65 | 1010.4 |
| 20260507002037 | 42 | 282 | 4.3 | 8.7 | 0.00 | 0.00 | 0.00 | 66 | 1010.4 |
| 20260507001547 | 42 | 209 | 4.3 | 9.6 | 0.00 | 0.00 | 0.00 | 65 | 1010.3 |
| 20260507001037 | 42 | 246 | 5.2 | 11.3 | 0.00 | 0.00 | 0.00 | 65 | 1010.2 |
| 20260507000538 | 42 | 215 | 4.3 | 12.2 | 0.00 | 0.00 | 0.00 | 66 | 1010.3 |
| 20260507000052 | 43 | 228 | 3.5 | 12.2 | 0.00 | 0.00 | 0.00 | 66 | 1010.3 |
| 20260506235537 | 43 | 234 | 6.1 | 13.9 | 0.00 | 0.00 | 0.00 | 65 | 1010.3 |
| 20260506235040 | 43 | 271 | 5.2 | 13.9 | 0.00 | 0.00 | 0.00 | 66 | 1010.1 |
| 20260506234554 | 43 | 198 | 3.5 | 10.4 | 0.00 | 0.00 | 0.00 | 68 | 1010.1 |
| 20260506234041 | 42 | 194 | 5.2 | 10.4 | 0.00 | 0.00 | 0.00 | 68 | 1010.1 |
| 20260506233538 | 42 | 201 | 4.3 | 10.4 | 0.00 | 0.00 | 0.00 | 68 | 1010.1 |
| 20260506233050 | 42 | 199 | 3.5 | 10.4 | 0.00 | 0.00 | 0.00 | 68 | 1010.1 |
| 20260506232537 | 42 | 225 | 4.3 | 10.4 | 0.00 | 0.00 | 0.00 | 68 | 1010.1 |
| 20260506232035 | 42 | 230 | 4.3 | 9.6 | 0.00 | 0.00 | 0.00 | 68 | 1010.0 |
| 20260506231546 | 42 | 250 | 4.3 | 10.4 | 0.00 | 0.00 | 0.00 | 67 | 1010.0 |
| 20260506231037 | 42 | 250 | 4.3 | 10.4 | 0.00 | 0.00 | 0.00 | 68 | 1010.0 |
| 20260506230537 | 43 | 225 | 3.5 | 10.4 | 0.00 | 0.00 | 0.00 | 67 | 1010.0 |
| 20260506230049 | 43 | 202 | 2.6 | 11.3 | 0.00 | 0.00 | 0.00 | 69 | 1009.9 |
| 20260506225537 | 43 | 191 | 6.1 | 11.3 | 0.00 | 0.00 | 0.00 | 65 | 1009.9 |
| 20260506225035 | 44 | 250 | 5.2 | 10.4 | 0.00 | 0.00 | 0.00 | 65 | 1009.8 |
| 20260506224600 | 44 | 218 | 4.3 | 8.7 | 0.00 | 0.00 | 0.00 | 65 | 1009.7 |
| 20260506224037 | 44 | 192 | 4.3 | 13.0 | 0.00 | 0.00 | 0.00 | 64 | 1009.8 |
| 20260506223536 | 43 | 143 | 5.2 | 13.0 | 0.00 | 0.00 | 0.00 | 65 | 1009.8 |
| 20260506223052 | 43 | 207 | 6.1 | 13.0 | 0.00 | 0.00 | 0.00 | 66 | 1009.7 |
| 20260506222538 | 43 | 208 | 5.2 | 10.4 | 0.00 | 0.00 | 0.00 | 65 | 1009.7 |
| 20260506222037 | 43 | 225 | 6.1 | 10.4 | 0.00 | 0.00 | 0.00 | 65 | 1009.6 |
| 20260506221554 | 43 | 198 | 4.3 | 10.4 | 0.00 | 0.00 | 0.00 | 66 | 1009.5 |
| 20260506221051 | 43 | 236 | 5.2 | 11.3 | 0.00 | 0.00 | 0.00 | 66 | 1009.7 |
| 20260506220538 | 43 | 171 | 4.3 | 11.3 | 0.00 | 0.00 | 0.00 | 68 | 1009.5 |
| 20260506220049 | 43 | 215 | 4.3 | 10.4 | 0.00 | 0.00 | 0.00 | 67 | 1009.6 |
| 20260506215536 | 44 | 203 | 3.5 | 13.0 | 0.00 | 0.00 | 0.00 | 67 | 1009.5 |
| 20260506215035 | 42 | 194 | 6.1 | 13.0 | 0.00 | 0.00 | 0.00 | 67 | 1009.5 |
| 20260506214605 | 42 | 225 | 5.2 | 11.3 | 0.00 | 0.00 | 0.00 | 67 | 1009.5 |
| 20260506214036 | 43 | 216 | 5.2 | 12.2 | 0.00 | 0.00 | 0.00 | 65 | 1009.5 |
| 20260506213538 | 43 | 251 | 5.2 | 12.2 | 0.00 | 0.00 | 0.00 | 66 | 1009.5 |
| 20260506213048 | 43 | 207 | 5.2 | 11.3 | 0.00 | 0.00 | 0.00 | 67 | 1009.4 |
| 20260506212537 | 44 | 215 | 5.2 | 10.4 | 0.00 | 0.00 | 0.00 | 66 | 1009.2 |
| 20260506212037 | 44 | 232 | 2.6 | 8.7 | 0.00 | 0.00 | 0.00 | 63 | 1009.2 |
| 20260506211548 | 45 | 179 | 0.9 | 7.0 | 0.00 | 0.00 | 0.00 | 62 | 1009.3 |
| 20260506211035 | 44 | 202 | 1.7 | 7.0 | 0.00 | 0.00 | 0.00 | 63 | 1009.1 |
| 20260506210537 | 43 | 208 | 2.6 | 7.0 | 0.00 | 0.00 | 0.00 | 67 | 1009.2 |
| 20260506210042 | 44 | 205 | 2.6 | 6.1 | 0.00 | 0.00 | 0.00 | 64 | 1009.1 |
| 20260506205536 | 43 | 153 | 1.7 | 6.1 | 0.00 | 0.00 | 0.00 | 68 | 1009.1 |
| 20260506205035 | 43 | 211 | 2.6 | 7.0 | 0.00 | 0.00 | 0.00 | 68 | 1009.1 |
| 20260506204559 | 43 | 0 | 2.6 | 7.8 | 0.00 | 0.00 | 0.00 | 65 | 1009.1 |
| 20260506204035 | 43 | 207 | 2.6 | 9.6 | 0.00 | 0.00 | 0.00 | 65 | 1009.0 |
| 20260506203535 | 42 | 269 | 3.5 | 9.6 | 0.00 | 0.00 | 0.00 | 66 | 1008.9 |
| 20260506203052 | 44 | 212 | 3.5 | 7.8 | 0.00 | 0.00 | 0.00 | 65 | 1008.9 |
| 20260506202536 | 44 | 218 | 1.7 | 5.2 | 0.00 | 0.00 | 0.00 | 66 | 1008.9 |
| 20260506202036 | 43 | 11 | 1.7 | 5.2 | 0.00 | 0.00 | 0.00 | 67 | 1008.8 |
| 20260506201549 | 42 | 76 | 1.7 | 6.1 | 0.00 | 0.00 | 0.00 | 67 | 1008.8 |
| 20260506201036 | 43 | 182 | 1.7 | 7.0 | 0.00 | 0.00 | 0.00 | 68 | 1008.7 |
| 20260506200535 | 42 | 169 | 2.6 | 7.0 | 0.00 | 0.00 | 0.00 | 68 | 1008.7 |
| 20260506200044 | 42 | 192 | 0.9 | 3.5 | 0.00 | 0.00 | 0.00 | 69 | 1008.7 |
| 20260506195535 | 42 | 181 | 0.9 | 4.3 | 0.00 | 0.00 | 0.00 | 69 | 1008.6 |
| 20260506195040 | 40 | 0 | 0.9 | 6.1 | 0.00 | 0.00 | 0.00 | 69 | 1008.5 |
| 20260506194557 | 41 | 0 | 0.9 | 6.1 | 0.00 | 0.00 | 0.00 | 70 | 1008.6 |
| 20260506194040 | 41 | 209 | 1.7 | 5.2 | 0.00 | 0.00 | 0.00 | 68 | 1008.6 |
| 20260506193537 | 41 | 211 | 1.7 | 5.2 | 0.00 | 0.00 | 0.00 | 69 | 1008.6 |
| 20260506193052 | 41 | 230 | 1.7 | 5.2 | 0.00 | 0.00 | 0.00 | 69 | 1008.5 |
| 20260506192538 | 41 | 192 | 1.7 | 5.2 | 0.00 | 0.00 | 0.00 | 71 | 1008.5 |
| 20260506192036 | 40 | 194 | 1.7 | 5.2 | 0.00 | 0.00 | 0.00 | 70 | 1008.4 |
| 20260506191551 | 40 | 217 | 0.9 | 5.2 | 0.00 | 0.00 | 0.00 | 70 | 1008.4 |
| 20260506191038 | 40 | 144 | 0.9 | 5.2 | 0.00 | 0.00 | 0.00 | 70 | 1008.4 |
| 20260506190538 | 40 | 0 | 0.0 | 3.5 | 0.00 | 0.00 | 0.00 | 72 | 1008.4 |
| 20260506190049 | 39 | 0 | 0.0 | 4.3 | 0.00 | 0.00 | 0.00 | 71 | 1008.3 |
| 20260506185538 | 40 | 138 | 1.7 | 4.3 | 0.00 | 0.00 | 0.00 | 72 | 1008.3 |
| 20260506185035 | 39 | 109 | 1.7 | 4.3 | 0.00 | 0.00 | 0.00 | 72 | 1008.4 |
| 20260506184543 | 40 | 174 | 0.9 | 3.5 | 0.00 | 0.00 | 0.00 | 72 | 1008.3 |
| 20260506184035 | 39 | 0 | 0.9 | 4.3 | 0.00 | 0.00 | 0.00 | 73 | 1008.3 |
| 20260506183535 | 39 | 183 | 1.7 | 4.3 | 0.00 | 0.00 | 0.00 | 74 | 1008.3 |
| 20260506183052 | 39 | 171 | 0.9 | 3.5 | 0.00 | 0.00 | 0.00 | 74 | 1008.3 |
| 20260506182535 | 39 | 0 | 0.0 | 3.5 | 0.00 | 0.00 | 0.00 | 74 | 1008.2 |
| 20260506182035 | 39 | 0 | 0.0 | 3.5 | 0.00 | 0.00 | 0.00 | 76 | 1008.2 |
| 20260506181550 | 38 | 0 | 0.0 | 4.3 | 0.00 | 0.00 | 0.00 | 76 | 1008.2 |
| 20260506181038 | 38 | 0 | 0.9 | 5.2 | 0.00 | 0.00 | 0.00 | 75 | 1008.1 |
| 20260506180537 | 38 | 216 | 1.7 | 5.2 | 0.00 | 0.00 | 0.00 | 75 | 1008.1 |
| 20260506180049 | 39 | 165 | 0.9 | 7.0 | 0.00 | 0.00 | 0.00 | 75 | 1008.1 |
| 20260506175537 | 39 | 165 | 0.9 | 7.0 | 0.00 | 0.00 | 0.00 | 76 | 1008.0 |
| 20260506175034 | 39 | 206 | 0.9 | 4.3 | 0.00 | 0.00 | 0.00 | 75 | 1008.0 |
| 20260506174545 | 39 | 190 | 2.6 | 4.3 | 0.00 | 0.00 | 0.00 | 76 | 1007.9 |
| 20260506174038 | 38 | 201 | 0.9 | 4.3 | 0.00 | 0.00 | 0.00 | 76 | 1007.9 |
| 20260506173539 | 38 | 188 | 0.9 | 3.5 | 0.00 | 0.00 | 0.00 | 76 | 1007.8 |
| 20260506173051 | 38 | 228 | 0.0 | 2.6 | 0.00 | 0.00 | 0.00 | 79 | 1007.8 |
| 20260506172535 | 37 | 0 | 0.0 | 2.6 | 0.00 | 0.00 | 0.00 | 79 | 1007.9 |
| 20260506172039 | 37 | 228 | 0.9 | 2.6 | 0.00 | 0.00 | 0.00 | 79 | 1007.8 |
| 20260506171555 | 37 | 0 | 0.0 | 0.0 | 0.00 | 0.00 | 0.00 | 81 | 1007.8 |
| 20260506171038 | 37 | 0 | 0.0 | 0.0 | 0.00 | 0.00 | 0.00 | 82 | 1007.8 |
| 20260506170540 | 37 | 0 | 0.0 | 0.0 | 0.00 | 0.00 | 0.00 | 82 | 1007.8 |
| 20260506170048 | 37 | 0 | 0.0 | 0.0 | 0.00 | 0.00 | 0.00 | 83 | 1007.8 |
| 20260506165536 | 37 | 0 | 0.0 | 0.0 | 0.00 | 0.00 | 0.00 | 84 | 1007.7 |
| 20260506165036 | 36 | 0 | 0.0 | 0.0 | 0.00 | 0.00 | 0.00 | 84 | 1007.7 |
| 20260506164548 | 36 | 0 | 0.0 | 0.0 | 0.00 | 0.00 | 0.00 | 84 | 1007.7 |
| 20260506164035 | 36 | 0 | 0.0 | 0.0 | 0.00 | 0.00 | 0.00 | 85 | 1007.7 |
| 20260506163536 | 36 | 0 | 0.0 | 0.0 | 0.00 | 0.00 | 0.00 | 86 | 1007.6 |
| 20260506163049 | 36 | 0 | 0.0 | 0.0 | 0.00 | 0.00 | 0.00 | 85 | 1007.6 |
| 20260506162537 | 36 | 0 | 0.0 | 0.0 | 0.00 | 0.00 | 0.00 | 84 | 1007.6 |
| 20260506162036 | 36 | 0 | 0.0 | 0.0 | 0.00 | 0.00 | 0.00 | 84 | 1007.4 |
| 20260506161556 | 36 | 0 | 0.0 | 0.0 | 0.00 | 0.00 | 0.00 | 85 | 1007.6 |
| 20260506161038 | 36 | 0 | 0.0 | 0.0 | 0.00 | 0.00 | 0.00 | 85 | 1007.4 |
| 20260506160535 | 36 | 0 | 0.0 | 0.0 | 0.00 | 0.00 | 0.00 | 85 | 1007.5 |
| 20260506160042 | 36 | 0 | 0.0 | 0.0 | 0.00 | 0.00 | 0.00 | 85 | 1007.4 |
| 20260506155536 | 35 | 0 | 0.0 | 0.0 | 0.00 | 0.00 | 0.00 | 85 | 1007.6 |
| 20260506155039 | 35 | 0 | 0.0 | 1.7 | 0.00 | 0.00 | 0.00 | 84 | 1007.5 |
| 20260506154608 | 35 | 0 | 0.0 | 1.7 | 0.00 | 0.00 | 0.00 | 84 | 1007.5 |
| 20260506154036 | 35 | 0 | 0.0 | 1.7 | 0.00 | 0.00 | 0.00 | 85 | 1007.3 |
| 20260506153536 | 35 | 0 | 0.0 | 1.7 | 0.00 | 0.00 | 0.00 | 85 | 1007.4 |
| 20260506153049 | 35 | 0 | 0.0 | 0.0 | 0.00 | 0.00 | 0.00 | 85 | 1007.3 |
| 20260506152535 | 35 | 0 | 0.0 | 0.0 | 0.00 | 0.00 | 0.00 | 86 | 1007.4 |
| 20260506152035 | 34 | 0 | 0.0 | 0.0 | 0.00 | 0.00 | 0.00 | 86 | 1007.4 |
| 20260506151541 | 34 | 0 | 0.0 | 0.0 | 0.00 | 0.00 | 0.00 | 87 | 1007.2 |
| 20260506151035 | 34 | 0 | 0.0 | 3.5 | 0.00 | 0.00 | 0.00 | 87 | 1007.3 |
| 20260506150535 | 34 | 0 | 0.9 | 3.5 | 0.00 | 0.00 | 0.00 | 87 | 1007.3 |
| 20260506150052 | 34 | 228 | 0.9 | 2.6 | 0.00 | 0.00 | 0.00 | 87 | 1007.2 |
| 20260506145538 | 34 | 228 | 0.9 | 1.7 | 0.00 | 0.00 | 0.00 | 87 | 1007.3 |
| 20260506145037 | 34 | 0 | 0.0 | 0.0 | 0.00 | 0.00 | 0.00 | 86 | 1007.2 |
| 20260506144558 | 34 | 0 | 0.0 | 3.5 | 0.00 | 0.00 | 0.00 | 86 | 1007.4 |
| 20260506144034 | 34 | 0 | 0.0 | 3.5 | 0.00 | 0.00 | 0.00 | 85 | 1007.3 |
| 20260506143539 | 34 | 228 | 1.7 | 4.3 | 0.00 | 0.00 | 0.00 | 85 | 1007.2 |
| 20260506143050 | 34 | 228 | 1.7 | 4.3 | 0.00 | 0.00 | 0.00 | 85 | 1007.2 |
| 20260506142538 | 34 | 220 | 0.9 | 4.3 | 0.00 | 0.00 | 0.00 | 86 | 1007.2 |
| 20260506142034 | 34 | 220 | 1.7 | 4.3 | 0.00 | 0.00 | 0.00 | 86 | 1007.2 |
| 20260506141551 | 33 | 210 | 1.7 | 4.3 | 0.00 | 0.00 | 0.00 | 85 | 1007.3 |
| 20260506141035 | 33 | 184 | 1.7 | 4.3 | 0.00 | 0.00 | 0.00 | 85 | 1007.2 |
| 20260506140537 | 33 | 184 | 1.7 | 4.3 | 0.00 | 0.00 | 0.00 | 84 | 1007.3 |
| 20260506140059 | 33 | 202 | 0.0 | 2.6 | 0.00 | 0.00 | 0.00 | 84 | 1007.2 |
| 20260506135535 | 33 | 202 | 0.0 | 3.5 | 0.00 | 0.00 | 0.00 | 83 | 1007.2 |
| 20260506135038 | 33 | 202 | 1.7 | 3.5 | 0.00 | 0.00 | 0.00 | 82 | 1007.3 |
| 20260506134549 | 33 | 211 | 0.0 | 2.6 | 0.00 | 0.00 | 0.00 | 83 | 1007.3 |
| 20260506134035 | 33 | 211 | 0.0 | 2.6 | 0.00 | 0.00 | 0.00 | 82 | 1007.3 |
| 20260506133535 | 34 | 0 | 0.9 | 2.6 | 0.00 | 0.00 | 0.00 | 81 | 1007.3 |
| 20260506133052 | 34 | 211 | 0.0 | 2.6 | 0.00 | 0.00 | 0.00 | 81 | 1007.2 |
| 20260506132537 | 34 | 211 | 0.9 | 2.6 | 0.00 | 0.00 | 0.00 | 81 | 1007.2 |
| 20260506132042 | 34 | 211 | 0.0 | 2.6 | 0.00 | 0.00 | 0.00 | 80 | 1007.2 |
| 20260506131548 | 34 | 211 | 0.9 | 2.6 | 0.00 | 0.00 | 0.00 | 80 | 1007.2 |
| 20260506131039 | 34 | 211 | 0.9 | 2.6 | 0.00 | 0.00 | 0.00 | 80 | 1007.2 |
| 20260506130537 | 34 | 0 | 0.0 | 0.0 | 0.00 | 0.00 | 0.00 | 80 | 1007.2 |
| 20260506130052 | 34 | 0 | 0.0 | 0.0 | 0.00 | 0.00 | 0.00 | 81 | 1007.2 |
| 20260506125538 | 34 | 0 | 0.0 | 0.0 | 0.00 | 0.00 | 0.00 | 81 | 1007.2 |
| 20260506125039 | 34 | 0 | 0.0 | 0.0 | 0.00 | 0.00 | 0.00 | 81 | 1007.1 |
| 20260506124549 | 34 | 0 | 0.0 | 0.0 | 0.00 | 0.00 | 0.00 | 81 | 1007.1 |
| 20260506124036 | 33 | 0 | 0.0 | 0.0 | 0.00 | 0.00 | 0.00 | 80 | 1007.1 |
| 20260506123541 | 34 | 0 | 0.0 | 0.0 | 0.00 | 0.00 | 0.00 | 80 | 1007.1 |
| 20260506123051 | 34 | 0 | 0.0 | 0.0 | 0.00 | 0.00 | 0.00 | 80 | 1007.1 |
| 20260506122535 | 33 | 0 | 0.0 | 0.0 | 0.00 | 0.00 | 0.00 | 81 | 1007.1 |
| 20260506122036 | 33 | 0 | 0.0 | 0.0 | 0.00 | 0.00 | 0.00 | 80 | 1007.0 |
| 20260506121551 | 33 | 0 | 0.0 | 0.0 | 0.00 | 0.00 | 0.00 | 80 | 1006.9 |
| 20260506121038 | 33 | 0 | 0.0 | 0.0 | 0.00 | 0.00 | 0.00 | 81 | 1006.9 |
| 20260506120537 | 33 | 0 | 0.0 | 0.0 | 0.00 | 0.00 | 0.00 | 81 | 1006.9 |
| 20260506120048 | 33 | 0 | 0.0 | 0.0 | 0.00 | 0.00 | 0.00 | 80 | 1006.7 |
| 20260506115539 | 33 | 0 | 0.0 | 0.0 | 0.00 | 0.00 | 0.00 | 80 | 1006.8 |
| 20260506115038 | 34 | 0 | 0.0 | 0.0 | 0.00 | 0.00 | 0.00 | 79 | 1006.9 |
| 20260506114557 | 34 | 0 | 0.0 | 0.0 | 0.00 | 0.00 | 0.00 | 79 | 1006.7 |
| 20260506114038 | 34 | 0 | 0.0 | 0.0 | 0.00 | 0.00 | 0.00 | 79 | 1006.8 |
| 20260506113535 | 34 | 0 | 0.0 | 0.0 | 0.00 | 0.00 | 0.00 | 80 | 1006.7 |
| 20260506113050 | 34 | 0 | 0.0 | 0.0 | 0.00 | 0.00 | 0.00 | 78 | 1006.8 |
| 20260506112535 | 34 | 0 | 0.0 | 0.0 | 0.00 | 0.00 | 0.00 | 79 | 1006.8 |
| 20260506112035 | 34 | 0 | 0.0 | 0.0 | 0.00 | 0.00 | 0.00 | 79 | 1006.7 |
| 20260506111544 | 34 | 0 | 0.0 | 0.0 | 0.00 | 0.00 | 0.00 | 80 | 1006.7 |
| 20260506111037 | 34 | 0 | 0.0 | 0.0 | 0.00 | 0.00 | 0.00 | 78 | 1006.7 |
| 20260506110535 | 35 | 0 | 0.0 | 0.0 | 0.00 | 0.00 | 0.00 | 76 | 1006.6 |
| 20260506110048 | 35 | 0 | 0.0 | 0.0 | 0.00 | 0.00 | 0.00 | 77 | 1006.6 |
| 20260506105536 | 35 | 0 | 0.0 | 0.0 | 0.00 | 0.00 | 0.00 | 76 | 1006.5 |
| 20260506105036 | 35 | 0 | 0.0 | 0.0 | 0.00 | 0.00 | 0.00 | 75 | 1006.5 |
| 20260506104556 | 35 | 0 | 0.0 | 0.0 | 0.00 | 0.00 | 0.00 | 76 | 1006.6 |
| 20260506104036 | 35 | 0 | 0.0 | 0.9 | 0.00 | 0.00 | 0.00 | 75 | 1006.5 |
| 20260506103538 | 35 | 0 | 0.0 | 2.6 | 0.00 | 0.00 | 0.00 | 74 | 1006.6 |
| 20260506103047 | 36 | 0 | 0.9 | 2.6 | 0.00 | 0.00 | 0.00 | 74 | 1006.5 |
| 20260506102536 | 36 | 211 | 0.9 | 2.6 | 0.00 | 0.00 | 0.00 | 74 | 1006.6 |
| 20260506102035 | 36 | 211 | 1.7 | 2.6 | 0.00 | 0.00 | 0.00 | 73 | 1006.4 |
| 20260506101549 | 36 | 211 | 1.7 | 2.6 | 0.00 | 0.00 | 0.00 | 74 | 1006.5 |
| 20260506101035 | 35 | 211 | 0.9 | 2.6 | 0.00 | 0.00 | 0.00 | 74 | 1006.5 |
| 20260506100536 | 35 | 0 | 0.0 | 1.7 | 0.00 | 0.00 | 0.00 | 74 | 1006.4 |
| 20260506100045 | 36 | 0 | 0.0 | 2.6 | 0.00 | 0.00 | 0.00 | 74 | 1006.4 |
| 20260506095537 | 36 | 211 | 0.0 | 3.5 | 0.00 | 0.00 | 0.00 | 74 | 1006.5 |
| 20260506095037 | 36 | 211 | 1.7 | 3.5 | 0.00 | 0.00 | 0.00 | 73 | 1006.4 |
| 20260506094546 | 36 | 211 | 0.0 | 2.6 | 0.00 | 0.00 | 0.00 | 74 | 1006.3 |
| 20260506094037 | 36 | 211 | 0.9 | 6.1 | 0.00 | 0.00 | 0.00 | 73 | 1006.4 |
| 20260506093539 | 36 | 0 | 1.7 | 7.0 | 0.00 | 0.00 | 0.00 | 74 | 1006.4 |
| 20260506093048 | 36 | 237 | 3.5 | 7.0 | 0.00 | 0.00 | 0.00 | 74 | 1006.4 |
| 20260506092535 | 36 | 235 | 3.5 | 7.0 | 0.00 | 0.00 | 0.00 | 74 | 1006.4 |
| 20260506092039 | 36 | 222 | 2.6 | 5.2 | 0.00 | 0.00 | 0.00 | 74 | 1006.3 |
| 20260506091543 | 36 | 198 | 1.7 | 4.3 | 0.00 | 0.00 | 0.00 | 74 | 1006.1 |
| 20260506091035 | 36 | 199 | 1.7 | 2.6 | 0.00 | 0.00 | 0.00 | 74 | 1006.2 |
| 20260506090537 | 36 | 199 | 0.9 | 2.6 | 0.00 | 0.00 | 0.00 | 74 | 1006.0 |
| 20260506090051 | 35 | 0 | 0.9 | 6.1 | 0.00 | 0.00 | 0.00 | 75 | 1006.1 |
| 20260506085538 | 35 | 199 | 1.7 | 6.1 | 0.00 | 0.00 | 0.00 | 76 | 1006.3 |
| 20260506085036 | 34 | 0 | 0.0 | 0.0 | 0.00 | 0.00 | 0.00 | 77 | 1006.1 |
| 20260506084554 | 33 | 0 | 0.0 | 0.0 | 0.00 | 0.00 | 0.00 | 79 | 1006.1 |
| 20260506084035 | 33 | 0 | 0.0 | 0.0 | 0.00 | 0.00 | 0.00 | 78 | 1006.1 |
| 20260506083539 | 34 | 0 | 0.0 | 0.0 | 0.00 | 0.00 | 0.00 | 77 | 1006.1 |
| 20260506083053 | 34 | 0 | 0.0 | 0.0 | 0.00 | 0.00 | 0.00 | 77 | 1005.9 |
| 20260506082537 | 34 | 0 | 0.0 | 0.9 | 0.00 | 0.00 | 0.00 | 76 | 1005.9 |
| 20260506082036 | 35 | 0 | 0.0 | 0.9 | 0.00 | 0.00 | 0.00 | 75 | 1005.9 |
| 20260506081558 | 35 | 0 | 0.0 | 4.3 | 0.00 | 0.00 | 0.00 | 75 | 1005.9 |
| 20260506081040 | 35 | 0 | 0.0 | 4.3 | 0.00 | 0.00 | 0.00 | 74 | 1005.9 |
| 20260506080535 | 36 | 201 | 0.9 | 4.3 | 0.00 | 0.00 | 0.00 | 73 | 1005.8 |
| 20260506073053 | 37 | 198 | 5.2 | 11.3 | 0.00 | 0.00 | 0.00 | 72 | 1005.9 |
| 20260506072538 | 37 | 231 | 7.0 | 11.3 | 0.00 | 0.00 | 0.00 | 72 | 1005.7 |
| 20260506072037 | 37 | 225 | 5.2 | 11.3 | 0.00 | 0.00 | 0.00 | 71 | 1005.8 |
| 20260506071544 | 37 | 205 | 5.2 | 11.3 | 0.00 | 0.00 | 0.00 | 71 | 1005.7 |
| 20260506071038 | 37 | 228 | 5.2 | 12.2 | 0.00 | 0.00 | 0.00 | 71 | 1005.8 |
| 20260506070538 | 37 | 208 | 4.3 | 12.2 | 0.00 | 0.00 | 0.00 | 71 | 1005.8 |